Flag for United Kingdom

Past Weather in Thornton-Cleveleys, England, United Kingdom — Yesterday and Last 2 Weeks

Now
61 °F

Passing clouds.


Feels Like: 61 °F
Forecast: 60 / 54 °F
Wind: 20 mph from Northwest

Location: Blackpool Airport

Current Time: Jul 10, 2020 at 4:24:11 pm

Latest Report: Jul 10, 2020 at 3:50 pm


Visibility: N/A

Pressure: 30.12 "Hg

Humidity: 68%

Dew Point: 50 °F

Location of Thornton-CleveleysLocation

Past Weather in Thornton-Cleveleys — Graph

°F

Thornton-Cleveleys Temperature Yesterday

Maximum temperature yesterday: 59 °F (at 10:20 am)
Minimum temperature yesterday: 52 °F (at 6:20 am)
Average temperature yesterday: 56 °F

High & Low Weather Summary for the Past Weeks

 TemperatureHumidityPressure
High88 °F (Jun 25, 3:50 pm)100% (Jun 30, 8:20 am)30.18 "Hg (Jun 30, 8:20 am)
Low52 °F (Jul 9, 6:20 am)31% (Jun 25, 3:50 pm)29.45 "Hg (Jun 27, 1:20 pm)
Average59 °F84%29.78 "Hg
* Reported Jun 25 3:20 pm — Jul 10 3:20 pm, Thornton-Cleveleys. Weather by CustomWeather, © 2020

Note: Actual official high and low records may vary slightly from our data, if they occured in-between our weather recording intervals... More about our weather records

Thornton-Cleveleys Weather History for the Previous 24 Hours

Scroll right to see more
 ConditionsComfort  
Time TempWeatherWind HumidityBarometerVisibility
3:20 pm
Fri, Jul 10
61 °FPassing clouds.20 mph68%30.12 "HgN/A
2:50 pm61 °FPassing clouds.22 mph68%30.09 "HgN/A
2:20 pm61 °FPassing clouds.20 mph68%30.09 "HgN/A
1:50 pm61 °FScattered clouds.21 mph68%30.09 "HgN/A
12:50 pm59 °FScattered clouds.21 mph72%30.09 "HgN/A
12:20 pm59 °FScattered clouds.21 mph72%30.07 "HgN/A
11:50 am59 °FScattered clouds.21 mph77%30.07 "HgN/A
11:20 am59 °FScattered clouds.18 mph72%30.07 "HgN/A
10:50 am57 °FScattered clouds.22 mph77%30.07 "HgN/A
10:20 am57 °FScattered showers. Scattered clouds.21 mph77%30.04 "HgN/A
9:50 am55 °FScattered showers. Scattered clouds.25 mph82%30.04 "HgN/A
9:20 am55 °FScattered showers. Scattered clouds.23 mph77%30.04 "HgN/A
8:50 am57 °FScattered clouds.22 mph77%30.01 "HgN/A
8:20 am57 °FScattered clouds.22 mph77%30.01 "HgN/A
7:50 am55 °FScattered clouds.20 mph77%30.01 "HgN/A
7:20 am55 °FScattered clouds.18 mph77%30.01 "HgN/A
6:50 am55 °FScattered clouds.17 mph77%30.01 "HgN/A
6:20 am55 °FScattered clouds.17 mph77%29.98 "HgN/A
8:50 pm
Thu, Jul 9
57 °FScattered showers. Partly sunny.3 mph88%29.95 "HgN/A
8:20 pm57 °FScattered showers. Broken clouds.2 mph88%29.95 "HgN/A
7:50 pm57 °FScattered showers. Broken clouds.2 mph88%29.95 "HgN/A
7:20 pm57 °FScattered showers. Broken clouds.3 mph88%29.95 "HgN/A
6:20 pm57 °FBroken clouds.6 mph88%29.95 "HgN/A
5:50 pm57 °FScattered showers. Broken clouds.7 mph88%29.95 "HgN/A
5:20 pm57 °FScattered showers. Partly sunny.6 mph88%29.95 "HgN/A
4:50 pm57 °FScattered showers. Partly sunny.5 mph88%29.95 "HgN/A
4:20 pm57 °FScattered showers. Partly sunny.5 mph88%29.95 "Hg6 mi
Weather by CustomWeather, © 2020

See weather overview